| time (UTC) | temp C | wind direction | speed KPH | gust KPH | rain 1hr cm | rain 24hr cm | rain mn cm | humidity % | barometer mb |
| 20260507140505 | 15 | 319 | 6.4 | 6.4 | 0.00 | 0.81 | 0.30 | 86 | 1010.1 |
| 20260507140010 | 15 | 332 | 6.4 | 8.0 | 0.00 | 0.94 | 0.36 | 85 | 1012.0 |
| 20260507140006 | 15 | 315 | 6.4 | 8.0 | 0.00 | 0.81 | 0.30 | 86 | 1010.2 |
| 20260507135505 | 15 | 294 | 6.4 | 12.9 | 0.00 | 0.81 | 0.30 | 87 | 1010.5 |
| 20260507135503 | 15 | 353 | 6.4 | 12.9 | 0.00 | 0.94 | 0.36 | 85 | 1012.0 |
| 20260507135005 | 15 | 296 | 6.4 | 12.9 | 0.00 | 0.81 | 0.30 | 87 | 1010.2 |
| 20260507135003 | 15 | 354 | 6.4 | 12.9 | 0.00 | 0.94 | 0.36 | 85 | 1011.9 |
| 20260507134504 | 15 | 326 | 6.4 | 8.0 | 0.00 | 0.94 | 0.36 | 85 | 1011.9 |
| 20260507134005 | 15 | 295 | 8.0 | 12.9 | 0.00 | 0.81 | 0.30 | 86 | 1010.3 |
| 20260507134003 | 15 | 291 | 8.0 | 12.9 | 0.00 | 0.94 | 0.36 | 84 | 1012.0 |
| 20260507133503 | 15 | 280 | 8.0 | 12.9 | 0.00 | 0.94 | 0.36 | 84 | 1012.0 |
| 20260507133003 | 15 | 275 | 6.4 | 9.7 | 0.00 | 0.94 | 0.36 | 84 | 1012.1 |
| 20260507132505 | 15 | 303 | 6.4 | 8.0 | 0.00 | 0.81 | 0.30 | 87 | 1010.2 |
| 20260507132003 | 16 | 305 | 6.4 | 9.7 | 0.00 | 0.94 | 0.36 | 84 | 1011.9 |
| 20260507131505 | 16 | 300 | 6.4 | 9.7 | 0.00 | 0.81 | 0.30 | 87 | 1010.2 |
| 20260507131005 | 16 | 307 | 4.8 | 6.4 | 0.00 | 0.81 | 0.30 | 86 | 1010.1 |
| 20260507131003 | 16 | 298 | 4.8 | 6.4 | 0.00 | 0.94 | 0.36 | 83 | 1011.7 |
| 20260507130505 | 16 | 304 | 6.4 | 8.0 | 0.00 | 0.81 | 0.30 | 87 | 1010.1 |
| 20260507130503 | 16 | 304 | 6.4 | 8.0 | 0.00 | 0.94 | 0.36 | 84 | 1011.6 |
| 20260507130005 | 16 | 313 | 6.4 | 8.0 | 0.00 | 0.81 | 0.30 | 87 | 1009.9 |
| 20260507125505 | 16 | 336 | 6.4 | 11.3 | 0.00 | 0.81 | 0.30 | 88 | 1009.9 |
| 20260507125503 | 15 | 11 | 6.4 | 12.9 | 0.00 | 0.94 | 0.36 | 84 | 1011.4 |
| 20260507125005 | 15 | 324 | 4.8 | 12.9 | 0.00 | 0.81 | 0.30 | 89 | 1009.9 |
| 20260507124504 | 15 | 22 | 4.8 | 12.9 | 0.00 | 0.94 | 0.36 | 84 | 1011.7 |
| 20260507124003 | 15 | 19 | 4.8 | 6.4 | 0.00 | 0.94 | 0.36 | 85 | 1011.6 |
| 20260507123504 | 15 | 36 | 3.2 | 6.4 | 0.00 | 0.94 | 0.36 | 86 | 1011.4 |
| 20260507123003 | 15 | 350 | 3.2 | 6.4 | 0.00 | 0.94 | 0.36 | 86 | 1011.6 |
| 20260507122504 | 15 | 322 | 1.6 | 8.0 | 0.00 | 0.81 | 0.30 | 93 | 1010.0 |
| 20260507122005 | 15 | 271 | 3.2 | 8.0 | 0.00 | 0.81 | 0.30 | 94 | 1010.0 |
| 20260507121505 | 15 | 215 | 4.8 | 8.0 | 0.00 | 0.81 | 0.30 | 95 | 1010.2 |
| 20260507121503 | 15 | 29 | 4.8 | 6.4 | 0.00 | 0.94 | 0.36 | 89 | 1011.7 |
| 20260507121005 | 15 | 158 | 4.8 | 4.8 | 0.00 | 0.81 | 0.30 | 95 | 1010.0 |
| 20260507121003 | 15 | 52 | 3.2 | 4.8 | 0.00 | 0.94 | 0.36 | 89 | 1011.7 |
| 20260507120503 | 15 | 77 | 3.2 | 8.0 | 0.00 | 0.94 | 0.36 | 90 | 1011.8 |
| 20260507115505 | 14 | 7 | 1.6 | 8.0 | 0.00 | 0.81 | 0.30 | 98 | 1009.9 |
| 20260507115004 | 14 | 337 | 1.6 | 6.4 | 0.00 | 0.81 | 0.30 | 99 | 1009.9 |
| 20260507114505 | 14 | 331 | 4.8 | 8.0 | 0.00 | 0.81 | 0.30 | 99 | 1010.1 |
| 20260507114503 | 14 | 64 | 4.8 | 6.4 | 0.00 | 0.94 | 0.36 | 94 | 1011.6 |
| 20260507114005 | 13 | 330 | 3.2 | 8.0 | 0.00 | 0.81 | 0.30 | 99 | 1009.9 |
| 20260507113505 | 13 | 351 | 1.6 | 6.4 | 0.00 | 0.81 | 0.30 | 99 | 1010.0 |
| 20260507113503 | 13 | 347 | 3.2 | 6.4 | 0.00 | 0.94 | 0.36 | 96 | 1011.8 |
| 20260507113005 | 13 | 348 | 1.6 | 4.8 | 0.00 | 0.81 | 0.30 | 99 | 1010.2 |
| 20260507112505 | 13 | 4 | 0.0 | 4.8 | 0.00 | 0.81 | 0.30 | 99 | 1010.3 |
| 20260507112503 | 13 | 338 | 4.8 | 6.4 | 0.00 | 0.94 | 0.36 | 97 | 1011.8 |
| 20260507112005 | 13 | 2 | 1.6 | 6.4 | 0.00 | 0.81 | 0.30 | 99 | 1010.3 |
| 20260507112003 | 13 | 6 | 4.8 | 6.4 | 0.00 | 0.94 | 0.36 | 99 | 1012.0 |
| 20260507111506 | 13 | 1 | 1.6 | 6.4 | 0.00 | 0.81 | 0.30 | 99 | 1010.2 |
| 20260507111503 | 13 | 44 | 3.2 | 6.4 | 0.00 | 0.94 | 0.36 | 99 | 1011.6 |
| 20260507111004 | 13 | 158 | 1.6 | 4.8 | 0.00 | 0.81 | 0.30 | 99 | 1010.1 |
| 20260507110505 | 13 | 158 | 1.6 | 4.8 | 0.00 | 0.81 | 0.30 | 99 | 1009.9 |
| 20260507110503 | 13 | 70 | 3.2 | 4.8 | 0.00 | 0.94 | 0.36 | 99 | 1011.7 |
| 20260507110005 | 12 | 0 | 0.0 | 0.0 | 0.00 | 0.81 | 0.30 | 99 | 1009.9 |
| 20260507105504 | 12 | 337 | 0.0 | 3.2 | 0.00 | 0.81 | 0.30 | 97 | 1010.0 |
| 20260507105005 | 12 | 331 | 3.2 | 8.0 | 0.00 | 0.81 | 0.30 | 97 | 1009.9 |
| 20260507104505 | 12 | 321 | 4.8 | 8.0 | 0.00 | 0.81 | 0.30 | 97 | 1009.9 |
| 20260507104004 | 12 | 302 | 4.8 | 8.0 | 0.00 | 0.81 | 0.30 | 97 | 1009.7 |
| 20260507103503 | 12 | 67 | 4.8 | 6.4 | 0.00 | 0.94 | 0.36 | 97 | 1011.5 |
| 20260507103005 | 12 | 292 | 1.6 | 8.0 | 0.00 | 0.81 | 0.30 | 97 | 1009.6 |
| 20260507102505 | 12 | 315 | 1.6 | 6.4 | 0.00 | 0.81 | 0.30 | 97 | 1009.7 |
| 20260507102503 | 12 | 67 | 3.2 | 6.4 | 0.00 | 0.94 | 0.36 | 97 | 1011.4 |
| 20260507102007 | 12 | 321 | 0.0 | 6.4 | 0.00 | 0.81 | 0.30 | 97 | 1009.6 |
| 20260507102004 | 12 | 347 | 3.2 | 6.4 | 0.00 | 0.94 | 0.36 | 97 | 1011.1 |
| 20260507101506 | 12 | 324 | 1.6 | 4.8 | 0.00 | 0.81 | 0.30 | 97 | 1009.7 |
| 20260507101503 | 12 | 309 | 3.2 | 6.4 | 0.00 | 0.94 | 0.36 | 97 | 1011.1 |
| 20260507101004 | 12 | 334 | 4.8 | 4.8 | 0.00 | 0.81 | 0.30 | 97 | 1009.5 |
| 20260507100504 | 12 | 1 | 3.2 | 4.8 | 0.00 | 0.94 | 0.36 | 97 | 1011.2 |
| 20260507100005 | 11 | 338 | 3.2 | 6.4 | 0.00 | 0.81 | 0.30 | 98 | 1009.3 |
| 20260507095505 | 11 | 330 | 3.2 | 6.4 | 0.00 | 0.81 | 0.30 | 98 | 1009.2 |
| 20260507095503 | 12 | 339 | 4.8 | 6.4 | 0.00 | 0.94 | 0.36 | 97 | 1010.8 |
| 20260507095003 | 12 | 357 | 4.8 | 6.4 | 0.00 | 0.94 | 0.36 | 97 | 1010.9 |
| 20260507094505 | 11 | 354 | 4.8 | 8.0 | 0.00 | 0.81 | 0.30 | 98 | 1009.2 |
| 20260507094503 | 12 | 352 | 6.4 | 6.4 | 0.00 | 0.94 | 0.36 | 97 | 1010.7 |
| 20260507094005 | 11 | 359 | 4.8 | 8.0 | 0.00 | 0.81 | 0.30 | 98 | 1009.1 |
| 20260507094003 | 12 | 345 | 6.4 | 6.4 | 0.00 | 0.94 | 0.36 | 97 | 1010.7 |
| 20260507093504 | 11 | 316 | 4.8 | 6.4 | 0.00 | 0.81 | 0.30 | 98 | 1009.1 |
| 20260507093003 | 11 | 350 | 4.8 | 6.4 | 0.00 | 0.94 | 0.36 | 98 | 1011.0 |
| 20260507092505 | 11 | 349 | 4.8 | 8.0 | 0.00 | 0.81 | 0.30 | 98 | 1009.1 |
| 20260507092004 | 11 | 347 | 6.4 | 8.0 | 0.00 | 0.81 | 0.30 | 98 | 1009.2 |
| 20260507091505 | 11 | 343 | 4.8 | 6.4 | 0.00 | 0.81 | 0.30 | 98 | 1009.2 |
| 20260507091003 | 11 | 348 | 4.8 | 6.4 | 0.00 | 0.94 | 0.36 | 98 | 1010.5 |
| 20260507090504 | 11 | 344 | 6.4 | 6.4 | 0.00 | 0.81 | 0.30 | 98 | 1008.9 |
| 20260507090009 | 11 | 344 | 4.8 | 6.4 | 0.00 | 0.94 | 0.36 | 98 | 1010.5 |
| 20260507090006 | 11 | 336 | 4.8 | 6.4 | 0.00 | 0.81 | 0.30 | 98 | 1008.8 |
| 20260507085505 | 11 | 356 | 4.8 | 6.4 | 0.00 | 0.81 | 0.30 | 98 | 1008.7 |
| 20260507085004 | 11 | 357 | 6.4 | 8.0 | 0.00 | 0.81 | 0.30 | 98 | 1008.6 |
| 20260507084505 | 11 | 351 | 6.4 | 9.7 | 0.00 | 0.81 | 0.30 | 98 | 1008.6 |
| 20260507084005 | 11 | 336 | 6.4 | 9.7 | 0.00 | 0.81 | 0.30 | 98 | 1008.5 |
| 20260507084003 | 11 | 351 | 6.4 | 9.7 | 0.00 | 0.94 | 0.36 | 98 | 1010.4 |
| 20260507083505 | 11 | 341 | 6.4 | 9.7 | 0.00 | 0.81 | 0.30 | 98 | 1008.4 |
| 20260507083004 | 11 | 25 | 6.4 | 8.0 | 0.00 | 0.94 | 0.36 | 98 | 1010.0 |
| 20260507082505 | 11 | 346 | 6.4 | 9.7 | 0.00 | 0.81 | 0.30 | 98 | 1008.3 |
| 20260507082003 | 11 | 343 | 6.4 | 11.3 | 0.00 | 0.94 | 0.36 | 98 | 1009.9 |
| 20260507081504 | 11 | 349 | 6.4 | 11.3 | 0.00 | 0.94 | 0.36 | 98 | 1009.5 |
| 20260507081005 | 11 | 1 | 8.0 | 9.7 | 0.00 | 0.81 | 0.30 | 98 | 1008.1 |
| 20260507080505 | 11 | 355 | 8.0 | 8.0 | 0.00 | 0.81 | 0.30 | 98 | 1008.0 |
| 20260507080009 | 11 | 342 | 6.4 | 9.7 | 0.00 | 0.94 | 0.36 | 98 | 1009.8 |
| 20260507080005 | 11 | 339 | 8.0 | 9.7 | 0.00 | 0.81 | 0.30 | 98 | 1008.1 |
| 20260507075505 | 11 | 326 | 6.4 | 9.7 | 0.00 | 0.81 | 0.30 | 98 | 1008.1 |
| 20260507075005 | 11 | 339 | 8.0 | 11.3 | 0.00 | 0.81 | 0.30 | 98 | 1008.0 |
| 20260507074504 | 11 | 342 | 8.0 | 11.3 | 0.00 | 0.81 | 0.30 | 98 | 1007.9 |
| 20260507074005 | 12 | 325 | 8.0 | 11.3 | 0.00 | 0.81 | 0.30 | 97 | 1007.9 |
| 20260507073505 | 12 | 302 | 6.4 | 8.0 | 0.00 | 0.81 | 0.30 | 97 | 1007.8 |
| 20260507073503 | 11 | 322 | 6.4 | 9.7 | 0.00 | 0.94 | 0.36 | 98 | 1009.6 |
| 20260507073004 | 11 | 294 | 6.4 | 9.7 | 0.00 | 0.94 | 0.36 | 98 | 1009.5 |
| 20260507072505 | 12 | 318 | 6.4 | 9.7 | 0.03 | 0.81 | 0.30 | 97 | 1007.7 |
| 20260507072005 | 12 | 313 | 8.0 | 12.9 | 0.05 | 0.81 | 0.30 | 97 | 1007.7 |
| 20260507071505 | 12 | 319 | 8.0 | 12.9 | 0.05 | 0.81 | 0.30 | 97 | 1007.6 |
| 20260507071005 | 12 | 325 | 8.0 | 12.9 | 0.05 | 0.81 | 0.30 | 97 | 1007.5 |
| 20260507070504 | 12 | 331 | 8.0 | 11.3 | 0.10 | 0.81 | 0.30 | 97 | 1007.5 |
| 20260507070009 | 12 | 328 | 6.4 | 11.3 | 0.10 | 0.81 | 0.30 | 97 | 1007.4 |
| 20260507065505 | 12 | 316 | 4.8 | 8.0 | 0.10 | 0.81 | 0.30 | 97 | 1007.3 |
| 20260507065503 | 12 | 316 | 4.8 | 6.4 | 0.10 | 0.94 | 0.36 | 97 | 1009.1 |
| 20260507065004 | 12 | 344 | 3.2 | 6.4 | 0.10 | 0.94 | 0.36 | 99 | 1009.0 |
| 20260507064505 | 12 | 326 | 3.2 | 6.4 | 0.10 | 0.81 | 0.30 | 97 | 1007.0 |
| 20260507064005 | 12 | 355 | 4.8 | 8.0 | 0.10 | 0.81 | 0.30 | 97 | 1006.8 |
| 20260507064003 | 12 | 21 | 4.8 | 6.4 | 0.10 | 0.94 | 0.36 | 97 | 1008.7 |
| 20260507063505 | 12 | 352 | 6.4 | 9.7 | 0.10 | 0.81 | 0.30 | 97 | 1006.7 |
| 20260507063005 | 12 | 354 | 6.4 | 9.7 | 0.05 | 0.79 | 0.28 | 97 | 1006.6 |
| 20260507063003 | 12 | 31 | 6.4 | 8.0 | 0.13 | 0.94 | 0.36 | 97 | 1008.4 |
| 20260507062504 | 12 | 9 | 4.8 | 8.0 | 0.10 | 0.89 | 0.33 | 97 | 1008.3 |
| 20260507062005 | 12 | 332 | 3.2 | 4.8 | 0.10 | 0.76 | 0.23 | 97 | 1006.8 |
| 20260507062003 | 12 | 335 | 3.2 | 4.8 | 0.13 | 0.86 | 0.30 | 97 | 1008.5 |
| 20260507061505 | 12 | 324 | 3.2 | 4.8 | 0.15 | 0.76 | 0.23 | 97 | 1006.8 |
| 20260507061503 | 12 | 345 | 3.2 | 4.8 | 0.18 | 0.86 | 0.30 | 97 | 1008.3 |
| 20260507061004 | 12 | 322 | 4.8 | 4.8 | 0.15 | 0.76 | 0.23 | 97 | 1006.7 |
| 20260507060505 | 12 | 318 | 4.8 | 4.8 | 0.13 | 0.71 | 0.20 | 97 | 1006.7 |
| 20260507060503 | 12 | 347 | 3.2 | 4.8 | 0.15 | 0.84 | 0.28 | 97 | 1008.5 |
| 20260507060010 | 12 | 331 | 3.2 | 6.4 | 0.15 | 0.84 | 0.28 | 97 | 1008.4 |
| 20260507060005 | 12 | 328 | 3.2 | 6.4 | 0.13 | 0.71 | 0.20 | 97 | 1006.6 |
| 20260507055504 | 12 | 338 | 4.8 | 6.4 | 0.13 | 0.71 | 0.20 | 97 | 1006.7 |
| 20260507055005 | 12 | 340 | 4.8 | 6.4 | 0.13 | 0.71 | 0.20 | 97 | 1006.6 |
| 20260507055003 | 12 | 357 | 4.8 | 6.4 | 0.15 | 0.84 | 0.28 | 97 | 1008.4 |
| 20260507054505 | 12 | 334 | 4.8 | 6.4 | 0.13 | 0.71 | 0.20 | 97 | 1006.4 |
| 20260507054003 | 12 | 336 | 4.8 | 6.4 | 0.15 | 0.84 | 0.28 | 97 | 1008.4 |
| 20260507053505 | 12 | 308 | 3.2 | 6.4 | 0.13 | 0.71 | 0.20 | 97 | 1006.4 |
| 20260507053503 | 12 | 329 | 4.8 | 6.4 | 0.15 | 0.84 | 0.28 | 97 | 1008.3 |
| 20260507053005 | 12 | 324 | 3.2 | 4.8 | 0.13 | 0.71 | 0.20 | 97 | 1006.4 |
| 20260507052504 | 12 | 304 | 4.8 | 6.4 | 0.10 | 0.69 | 0.18 | 97 | 1006.5 |
| 20260507052003 | 12 | 277 | 4.8 | 6.4 | 0.03 | 0.71 | 0.15 | 97 | 1008.2 |
| 20260507051504 | 12 | 285 | 4.8 | 6.4 | 0.00 | 0.69 | 0.13 | 97 | 1008.1 |
| 20260507051004 | 12 | 286 | 3.2 | 4.8 | 0.00 | 0.61 | 0.10 | 97 | 1006.4 |
| 20260507050505 | 12 | 277 | 1.6 | 3.2 | 0.00 | 0.61 | 0.10 | 99 | 1006.3 |
| 20260507050503 | 12 | 263 | 1.6 | 3.2 | 0.00 | 0.69 | 0.13 | 97 | 1008.0 |
| 20260507050009 | 12 | 287 | 1.6 | 3.2 | 0.00 | 0.69 | 0.13 | 97 | 1008.0 |
| 20260507050005 | 12 | 306 | 1.6 | 3.2 | 0.00 | 0.61 | 0.10 | 99 | 1006.2 |
| 20260507045505 | 12 | 310 | 1.6 | 3.2 | 0.00 | 0.61 | 0.10 | 99 | 1006.2 |
| 20260507045003 | 12 | 355 | 1.6 | 3.2 | 0.00 | 0.69 | 0.13 | 99 | 1007.7 |
| 20260507044504 | 12 | 330 | 1.6 | 3.2 | 0.00 | 0.61 | 0.10 | 99 | 1006.0 |
| 20260507044005 | 12 | 337 | 1.6 | 3.2 | 0.00 | 0.61 | 0.10 | 99 | 1005.9 |
| 20260507043505 | 12 | 6 | 3.2 | 3.2 | 0.00 | 0.61 | 0.10 | 99 | 1005.8 |
| 20260507043503 | 12 | 23 | 1.6 | 3.2 | 0.03 | 0.69 | 0.13 | 99 | 1007.6 |
| 20260507043004 | 12 | 12 | 1.6 | 3.2 | 0.00 | 0.61 | 0.10 | 99 | 1005.8 |
| 20260507042503 | 12 | 17 | 0.0 | 3.2 | 0.03 | 0.69 | 0.13 | 97 | 1007.6 |
| 20260507042005 | 12 | 341 | 3.2 | 4.8 | 0.00 | 0.61 | 0.10 | 99 | 1005.6 |
| 20260507041504 | 12 | 354 | 3.2 | 4.8 | 0.00 | 0.61 | 0.10 | 99 | 1005.6 |
| 20260507041004 | 12 | 41 | 3.2 | 4.8 | 0.03 | 0.69 | 0.13 | 97 | 1007.3 |
| 20260507040505 | 12 | 356 | 3.2 | 3.2 | 0.00 | 0.61 | 0.10 | 99 | 1005.6 |
| 20260507040503 | 12 | 40 | 3.2 | 4.8 | 0.03 | 0.69 | 0.13 | 97 | 1007.4 |
| 20260507040005 | 12 | 333 | 3.2 | 3.2 | 0.00 | 0.61 | 0.10 | 99 | 1005.6 |
| 20260507035505 | 13 | 318 | 3.2 | 4.8 | 0.00 | 0.61 | 0.10 | 99 | 1005.6 |
| 20260507035005 | 13 | 313 | 3.2 | 4.8 | 0.00 | 0.61 | 0.10 | 99 | 1005.6 |
| 20260507034505 | 13 | 297 | 1.6 | 3.2 | 0.00 | 0.61 | 0.10 | 99 | 1005.4 |
| 20260507034503 | 13 | 312 | 1.6 | 3.2 | 0.03 | 0.69 | 0.13 | 99 | 1007.1 |
| 20260507034005 | 13 | 294 | 1.6 | 3.2 | 0.00 | 0.61 | 0.10 | 99 | 1005.4 |
| 20260507033505 | 13 | 300 | 1.6 | 3.2 | 0.00 | 0.61 | 0.10 | 99 | 1005.3 |
| 20260507033503 | 13 | 315 | 1.6 | 3.2 | 0.00 | 0.66 | 0.10 | 99 | 1007.2 |
| 20260507032504 | 13 | 264 | 3.2 | 8.0 | 0.00 | 0.61 | 0.10 | 99 | 1005.1 |
| 20260507032005 | 13 | 298 | 4.8 | 8.0 | 0.00 | 0.61 | 0.10 | 99 | 1005.4 |
| 20260507031505 | 13 | 300 | 3.2 | 8.0 | 0.00 | 0.61 | 0.10 | 99 | 1005.6 |
| 20260507031004 | 13 | 276 | 1.6 | 4.8 | 0.00 | 0.66 | 0.10 | 99 | 1007.2 |
| 20260507030505 | 13 | 286 | 4.8 | 6.4 | 0.00 | 0.61 | 0.10 | 99 | 1005.3 |
| 20260507030503 | 13 | 279 | 4.8 | 6.4 | 0.00 | 0.66 | 0.10 | 99 | 1007.0 |
| 20260507030009 | 13 | 281 | 4.8 | 6.4 | 0.00 | 0.66 | 0.10 | 99 | 1007.2 |
| 20260507025504 | 13 | 272 | 4.8 | 6.4 | 0.00 | 0.61 | 0.10 | 99 | 1005.2 |
| 20260507025005 | 13 | 278 | 3.2 | 6.4 | 0.00 | 0.61 | 0.10 | 99 | 1005.1 |
| 20260507024503 | 13 | 243 | 1.6 | 3.2 | 0.00 | 0.66 | 0.10 | 99 | 1006.8 |
| 20260507024004 | 13 | 202 | 1.6 | 3.2 | 0.00 | 0.61 | 0.10 | 99 | 1004.9 |
| 20260507023505 | 13 | 260 | 3.2 | 6.4 | 0.00 | 0.61 | 0.10 | 99 | 1005.0 |
| 20260507023005 | 13 | 270 | 1.6 | 6.4 | 0.00 | 0.61 | 0.10 | 99 | 1005.0 |
| 20260507023003 | 13 | 282 | 3.2 | 6.4 | 0.00 | 0.66 | 0.10 | 99 | 1006.7 |
| 20260507022504 | 13 | 85 | 1.6 | 3.2 | 0.00 | 0.66 | 0.10 | 99 | 1006.7 |
| 20260507022005 | 13 | 86 | 1.6 | 3.2 | 0.00 | 0.61 | 0.10 | 99 | 1004.5 |
| 20260507022003 | 13 | 93 | 1.6 | 3.2 | 0.00 | 0.66 | 0.10 | 99 | 1006.5 |
| 20260507021505 | 13 | 72 | 3.2 | 3.2 | 0.00 | 0.61 | 0.10 | 99 | 1004.7 |
| 20260507021005 | 13 | 327 | 3.2 | 3.2 | 0.00 | 0.61 | 0.10 | 99 | 1004.7 |
| 20260507020504 | 13 | 323 | 1.6 | 3.2 | 0.00 | 0.61 | 0.10 | 99 | 1004.7 |
| 20260507020010 | 13 | 78 | 1.6 | 4.8 | 0.00 | 0.66 | 0.10 | 99 | 1006.6 |
| 20260507015504 | 13 | 92 | 3.2 | 4.8 | 0.00 | 0.61 | 0.10 | 99 | 1005.0 |
| 20260507015005 | 13 | 58 | 3.2 | 4.8 | 0.00 | 0.61 | 0.10 | 99 | 1004.9 |
| 20260507015003 | 13 | 83 | 3.2 | 4.8 | 0.00 | 0.66 | 0.10 | 99 | 1006.6 |
| 20260507014505 | 13 | 20 | 4.8 | 6.4 | 0.00 | 0.61 | 0.10 | 99 | 1004.8 |
| 20260507014004 | 13 | 34 | 4.8 | 6.4 | 0.00 | 0.66 | 0.10 | 99 | 1006.5 |
| 20260507013505 | 13 | 8 | 4.8 | 6.4 | 0.00 | 0.61 | 0.10 | 99 | 1004.8 |
| 20260507013005 | 13 | 85 | 4.8 | 6.4 | 0.00 | 0.61 | 0.10 | 99 | 1004.7 |
| 20260507013003 | 13 | 105 | 4.8 | 6.4 | 0.00 | 0.66 | 0.10 | 99 | 1006.5 |
| 20260507012504 | 13 | 110 | 4.8 | 6.4 | 0.00 | 0.61 | 0.10 | 99 | 1004.5 |
| 20260507012005 | 13 | 122 | 6.4 | 6.4 | 0.00 | 0.61 | 0.10 | 99 | 1004.5 |
| 20260507012003 | 13 | 99 | 4.8 | 6.4 | 0.00 | 0.66 | 0.10 | 99 | 1006.3 |
| 20260507011505 | 13 | 89 | 6.4 | 8.0 | 0.00 | 0.61 | 0.10 | 99 | 1004.5 |
| 20260507011503 | 13 | 90 | 6.4 | 6.4 | 0.00 | 0.66 | 0.10 | 99 | 1006.3 |
| 20260507010505 | 13 | 42 | 4.8 | 6.4 | 0.00 | 0.61 | 0.10 | 99 | 1004.6 |
| 20260507010503 | 13 | 43 | 6.4 | 8.0 | 0.00 | 0.66 | 0.10 | 99 | 1006.3 |
| 20260507010010 | 13 | 28 | 3.2 | 6.4 | 0.00 | 0.66 | 0.10 | 99 | 1006.5 |
| 20260507010005 | 13 | 17 | 4.8 | 6.4 | 0.00 | 0.61 | 0.10 | 99 | 1004.6 |
| 20260507005504 | 13 | 82 | 4.8 | 6.4 | 0.00 | 0.61 | 0.10 | 99 | 1004.7 |
| 20260507005005 | 13 | 4 | 6.4 | 9.7 | 0.00 | 0.61 | 0.10 | 98 | 1004.7 |
| 20260507004505 | 13 | 336 | 9.7 | 16.1 | 0.00 | 0.61 | 0.10 | 98 | 1004.7 |
| 20260507004004 | 13 | 325 | 8.0 | 16.1 | 0.00 | 0.61 | 0.10 | 98 | 1004.8 |
| 20260507003505 | 13 | 331 | 6.4 | 12.9 | 0.00 | 0.61 | 0.10 | 98 | 1004.9 |
| 20260507003004 | 13 | 356 | 4.8 | 11.3 | 0.00 | 0.66 | 0.10 | 99 | 1006.5 |
| 20260507002505 | 13 | 333 | 4.8 | 8.0 | 0.00 | 0.61 | 0.10 | 98 | 1005.1 |
| 20260507002503 | 13 | 349 | 4.8 | 6.4 | 0.00 | 0.66 | 0.10 | 99 | 1006.6 |
| 20260507002005 | 13 | 318 | 3.2 | 6.4 | 0.03 | 0.61 | 0.10 | 98 | 1004.9 |
| 20260507002003 | 13 | 353 | 3.2 | 6.4 | 0.00 | 0.66 | 0.10 | 99 | 1006.5 |
| 20260507001504 | 13 | 319 | 3.2 | 6.4 | 0.05 | 0.61 | 0.10 | 98 | 1005.0 |
| 20260507001004 | 13 | 341 | 3.2 | 6.4 | 0.05 | 0.66 | 0.10 | 99 | 1007.0 |
| 20260507000505 | 13 | 326 | 3.2 | 4.8 | 0.05 | 0.61 | 0.10 | 96 | 1005.1 |
| 20260507000503 | 13 | 346 | 3.2 | 4.8 | 0.05 | 0.66 | 0.10 | 99 | 1006.9 |
| 20260507000010 | 13 | 352 | 3.2 | 6.4 | 0.05 | 0.66 | 0.10 | 99 | 1006.9 |
| 20260507000005 | 13 | 338 | 3.2 | 6.4 | 0.05 | 0.61 | 0.10 | 96 | 1005.2 |
| 20260506235505 | 13 | 341 | 4.8 | 6.4 | 0.05 | 0.61 | 0.10 | 96 | 1005.4 |
| 20260506235503 | 13 | 14 | 4.8 | 6.4 | 0.05 | 0.66 | 0.10 | 99 | 1007.0 |
| 20260506235004 | 13 | 38 | 6.4 | 9.7 | 0.05 | 0.66 | 0.10 | 99 | 1006.8 |
| 20260506234504 | 13 | 26 | 4.8 | 9.7 | 0.05 | 0.66 | 0.10 | 99 | 1006.8 |
| 20260506234005 | 13 | 341 | 4.8 | 6.4 | 0.05 | 0.61 | 0.10 | 95 | 1005.1 |
| 20260506234003 | 13 | 340 | 4.8 | 6.4 | 0.05 | 0.66 | 0.10 | 99 | 1006.7 |
| 20260506233505 | 13 | 4 | 6.4 | 8.0 | 0.05 | 0.61 | 0.10 | 95 | 1005.1 |
| 20260506233004 | 13 | 337 | 6.4 | 12.9 | 0.05 | 0.61 | 0.10 | 95 | 1005.0 |
| 20260506232505 | 13 | 312 | 6.4 | 12.9 | 0.05 | 0.61 | 0.10 | 95 | 1005.2 |
| 20260506232503 | 13 | 291 | 6.4 | 14.5 | 0.05 | 0.66 | 0.10 | 97 | 1006.7 |
| 20260506232005 | 13 | 319 | 6.4 | 11.3 | 0.03 | 0.56 | 0.05 | 95 | 1005.4 |
| 20260506231505 | 14 | 317 | 6.4 | 11.3 | 0.00 | 0.53 | 0.03 | 95 | 1005.4 |
| 20260506231005 | 14 | 308 | 6.4 | 9.7 | 0.03 | 0.53 | 0.03 | 95 | 1005.1 |
| 20260506231003 | 13 | 314 | 6.4 | 9.7 | 0.03 | 0.61 | 0.03 | 97 | 1007.0 |
| 20260506230504 | 14 | 298 | 6.4 | 9.7 | 0.03 | 0.53 | 0.03 | 94 | 1005.3 |
| 20260506230009 | 14 | 302 | 4.8 | 6.4 | 0.03 | 0.61 | 0.03 | 96 | 1006.7 |
| 20260506230005 | 14 | 298 | 4.8 | 6.4 | 0.03 | 0.53 | 0.03 | 94 | 1005.1 |
| 20260506225504 | 14 | 350 | 6.4 | 11.3 | 0.03 | 0.61 | 0.03 | 96 | 1006.6 |
| 20260506225005 | 14 | 311 | 6.4 | 12.9 | 0.03 | 0.53 | 0.03 | 94 | 1004.7 |
| 20260506224504 | 14 | 357 | 4.8 | 6.4 | 0.03 | 0.61 | 0.03 | 95 | 1006.5 |
| 20260506224005 | 14 | 5 | 4.8 | 8.0 | 0.03 | 0.53 | 0.03 | 94 | 1004.8 |
| 20260506223504 | 14 | 1 | 4.8 | 6.4 | 0.03 | 0.53 | 0.03 | 94 | 1004.7 |
| 20260506223004 | 14 | 344 | 4.8 | 8.0 | 0.05 | 0.53 | 0.03 | 93 | 1004.7 |
| 20260506222505 | 14 | 338 | 4.8 | 8.0 | 0.05 | 0.53 | 0.03 | 93 | 1004.6 |
| 20260506222004 | 14 | 16 | 6.4 | 6.4 | 0.05 | 0.61 | 0.03 | 94 | 1006.2 |
| 20260506221504 | 14 | 335 | 4.8 | 6.4 | 0.05 | 0.53 | 0.03 | 92 | 1004.8 |
| 20260506221004 | 14 | 11 | 3.2 | 4.8 | 0.05 | 0.56 | 0.00 | 94 | 1006.7 |
| 20260506220505 | 14 | 321 | 0.0 | 6.4 | 0.05 | 0.51 | 0.00 | 91 | 1004.8 |
| 20260506220503 | 14 | 12 | 1.6 | 3.2 | 0.05 | 0.56 | 0.00 | 93 | 1006.3 |
| 20260506220011 | 14 | 342 | 3.2 | 6.4 | 0.13 | 0.56 | 0.00 | 93 | 1006.8 |
| 20260506220005 | 14 | 325 | 3.2 | 6.4 | 0.18 | 0.51 | 0.00 | 91 | 1004.9 |
| 20260506215504 | 14 | 319 | 4.8 | 6.4 | 0.36 | 0.51 | 0.51 | 90 | 1005.0 |
| 20260506215006 | 14 | 308 | 4.8 | 6.4 | 0.51 | 0.51 | 0.51 | 90 | 1005.2 |
| 20260506215004 | 14 | 321 | 4.8 | 6.4 | 0.56 | 0.56 | 0.56 | 91 | 1006.9 |
| 20260506214505 | 14 | 308 | 6.4 | 9.7 | 0.51 | 0.51 | 0.51 | 89 | 1005.3 |
| 20260506214503 | 14 | 324 | 6.4 | 11.3 | 0.56 | 0.56 | 0.56 | 91 | 1006.9 |
| 20260506214003 | 14 | 295 | 8.0 | 11.3 | 0.56 | 0.56 | 0.56 | 90 | 1006.8 |
| 20260506213504 | 14 | 289 | 6.4 | 9.7 | 0.51 | 0.51 | 0.51 | 88 | 1005.3 |
| 20260506213005 | 15 | 284 | 6.4 | 9.7 | 0.48 | 0.48 | 0.48 | 87 | 1005.2 |
| 20260506212504 | 15 | 280 | 6.4 | 9.7 | 0.48 | 0.48 | 0.48 | 86 | 1005.2 |
| 20260506212013 | 14 | 295 | 9.7 | 12.9 | 0.53 | 0.53 | 0.53 | 86 | 1006.9 |
| 20260506212005 | 15 | 303 | 9.7 | 17.7 | 0.48 | 0.48 | 0.48 | 85 | 1005.0 |
| 20260506211724 | 15 | 297 | 11.3 | 17.7 | 0.51 | 0.51 | 0.51 | 86 | 1007.0 |
| 20260506211505 | 15 | 314 | 11.3 | 17.7 | 0.48 | 0.48 | 0.48 | 84 | 1005.0 |
| 20260506211225 | 15 | 305 | 12.9 | 17.7 | 0.51 | 0.51 | 0.51 | 85 | 1006.6 |
| 20260506210231 | 15 | 296 | 12.9 | 17.7 | 0.38 | 0.38 | 0.38 | 79 | 1006.4 |
| 20260506210005 | 15 | 287 | 11.3 | 17.7 | 0.33 | 0.33 | 0.33 | 77 | 1004.7 |
| 20260506205725 | 16 | 301 | 9.7 | 17.7 | 0.30 | 0.30 | 0.30 | 76 | 1006.4 |
| 20260506205505 | 16 | 289 | 8.0 | 12.9 | 0.15 | 0.15 | 0.15 | 73 | 1004.5 |
| 20260506205224 | 16 | 297 | 4.8 | 11.3 | 0.00 | 0.00 | 0.00 | 74 | 1006.1 |
| 20260506205004 | 16 | 289 | 4.8 | 9.7 | 0.00 | 0.00 | 0.00 | 72 | 1004.4 |
| 20260506204724 | 16 | 96 | 1.6 | 4.8 | 0.00 | 0.00 | 0.00 | 73 | 1005.9 |
| 20260506204504 | 16 | 129 | 3.2 | 6.4 | 0.00 | 0.00 | 0.00 | 72 | 1003.8 |
| 20260506204224 | 16 | 157 | 3.2 | 6.4 | 0.00 | 0.00 | 0.00 | 73 | 1005.5 |
| 20260506204005 | 16 | 184 | 4.8 | 6.4 | 0.00 | 0.00 | 0.00 | 72 | 1003.8 |
| 20260506203724 | 16 | 216 | 4.8 | 6.4 | 0.00 | 0.00 | 0.00 | 73 | 1005.5 |
| 20260506203504 | 16 | 239 | 4.8 | 6.4 | 0.00 | 0.00 | 0.00 | 72 | 1004.0 |
| 20260506203005 | 16 | 263 | 3.2 | 6.4 | 0.00 | 0.00 | 0.00 | 70 | 1004.0 |
| 20260506202724 | 16 | 248 | 3.2 | 6.4 | 0.00 | 0.00 | 0.00 | 71 | 1005.6 |
| 20260506202505 | 16 | 270 | 0.0 | 4.8 | 0.00 | 0.00 | 0.00 | 69 | 1003.8 |
| 20260506202224 | 16 | 119 | 1.6 | 3.2 | 0.00 | 0.00 | 0.00 | 70 | 1005.3 |
| 20260506202004 | 16 | 0 | 0.0 | 0.0 | 0.00 | 0.00 | 0.00 | 68 | 1003.8 |
| 20260506201724 | 16 | 116 | 1.6 | 3.2 | 0.00 | 0.00 | 0.00 | 69 | 1005.4 |
| 20260506201505 | 16 | 0 | 0.0 | 0.0 | 0.00 | 0.00 | 0.00 | 67 | 1003.6 |
| 20260506201224 | 16 | 0 | 0.0 | 0.0 | 0.00 | 0.00 | 0.00 | 68 | 1005.5 |
| 20260506201004 | 16 | 0 | 0.0 | 0.0 | 0.00 | 0.00 | 0.00 | 67 | 1003.7 |
| 20260506200724 | 16 | 0 | 0.0 | 0.0 | 0.00 | 0.00 | 0.00 | 67 | 1005.6 |
| 20260506200505 | 17 | 270 | 0.0 | 3.2 | 0.00 | 0.00 | 0.00 | 65 | 1003.9 |
| 20260506200005 | 17 | 311 | 0.0 | 3.2 | 0.00 | 0.00 | 0.00 | 65 | 1003.9 |
| 20260506195724 | 16 | 110 | 0.0 | 3.2 | 0.00 | 0.00 | 0.00 | 66 | 1005.6 |
| 20260506195505 | 17 | 97 | 1.6 | 3.2 | 0.00 | 0.00 | 0.00 | 64 | 1004.0 |
| 20260506195225 | 16 | 103 | 1.6 | 3.2 | 0.00 | 0.00 | 0.00 | 65 | 1005.8 |
| 20260506195005 | 17 | 107 | 1.6 | 3.2 | 0.00 | 0.00 | 0.00 | 64 | 1004.0 |
| 20260506194724 | 17 | 89 | 1.6 | 3.2 | 0.00 | 0.00 | 0.00 | 64 | 1005.7 |
| 20260506194504 | 17 | 90 | 0.0 | 3.2 | 0.00 | 0.00 | 0.00 | 63 | 1003.9 |
| 20260506194005 | 17 | 0 | 0.0 | 0.0 | 0.00 | 0.00 | 0.00 | 63 | 1004.0 |
| 20260506193724 | 17 | 90 | 0.0 | 3.2 | 0.00 | 0.00 | 0.00 | 64 | 1005.6 |
| 20260506193505 | 17 | 0 | 0.0 | 0.0 | 0.00 | 0.00 | 0.00 | 62 | 1004.2 |
| 20260506193224 | 17 | 0 | 0.0 | 0.0 | 0.00 | 0.00 | 0.00 | 63 | 1005.7 |
| 20260506193004 | 17 | 0 | 0.0 | 0.0 | 0.00 | 0.00 | 0.00 | 61 | 1004.3 |
| 20260506192724 | 17 | 0 | 0.0 | 0.0 | 0.00 | 0.00 | 0.00 | 63 | 1006.0 |
| 20260506192224 | 17 | 0 | 0.0 | 0.0 | 0.00 | 0.00 | 0.00 | 62 | 1005.7 |
| 20260506192004 | 18 | 0 | 0.0 | 0.0 | 0.00 | 0.00 | 0.00 | 60 | 1004.2 |
| 20260506191504 | 18 | 0 | 0.0 | 0.0 | 0.00 | 0.00 | 0.00 | 59 | 1004.0 |
| 20260506191224 | 18 | 225 | 0.0 | 1.6 | 0.00 | 0.00 | 0.00 | 59 | 1005.8 |
| 20260506191005 | 18 | 0 | 0.0 | 0.0 | 0.00 | 0.00 | 0.00 | 57 | 1004.0 |
| 20260506190505 | 19 | 0 | 0.0 | 0.0 | 0.00 | 0.00 | 0.00 | 57 | 1004.0 |
| 20260506190231 | 18 | 0 | 0.0 | 0.0 | 0.00 | 0.00 | 0.00 | 57 | 1005.6 |
| 20260506190005 | 19 | 0 | 0.0 | 0.0 | 0.00 | 0.00 | 0.00 | 56 | 1003.8 |
| 20260506185505 | 19 | 0 | 0.0 | 0.0 | 0.00 | 0.00 | 0.00 | 56 | 1003.9 |
| 20260506185004 | 19 | 0 | 0.0 | 0.0 | 0.00 | 0.00 | 0.00 | 56 | 1003.7 |
| 20260506184725 | 19 | 0 | 0.0 | 0.0 | 0.00 | 0.00 | 0.00 | 56 | 1005.5 |
| 20260506184504 | 19 | 0 | 0.0 | 0.0 | 0.00 | 0.00 | 0.00 | 55 | 1003.8 |
| 20260506184224 | 19 | 0 | 0.0 | 0.0 | 0.00 | 0.00 | 0.00 | 55 | 1005.4 |
| 20260506184005 | 20 | 0 | 0.0 | 0.0 | 0.00 | 0.00 | 0.00 | 55 | 1003.6 |
| 20260506183724 | 19 | 225 | 0.0 | 1.6 | 0.00 | 0.00 | 0.00 | 55 | 1005.4 |
| 20260506183504 | 20 | 0 | 0.0 | 0.0 | 0.00 | 0.00 | 0.00 | 54 | 1003.7 |
| 20260506182725 | 20 | 265 | 1.6 | 3.2 | 0.00 | 0.00 | 0.00 | 55 | 1005.4 |
| 20260506182224 | 20 | 268 | 1.6 | 3.2 | 0.00 | 0.00 | 0.00 | 53 | 1005.3 |
| 20260506182005 | 20 | 0 | 0.0 | 0.0 | 0.00 | 0.00 | 0.00 | 53 | 1003.5 |
| 20260506181504 | 20 | 0 | 0.0 | 0.0 | 0.00 | 0.00 | 0.00 | 53 | 1003.5 |
| 20260506181224 | 20 | 270 | 0.0 | 1.6 | 0.00 | 0.00 | 0.00 | 52 | 1005.1 |
| 20260506181004 | 21 | 0 | 0.0 | 0.0 | 0.00 | 0.00 | 0.00 | 51 | 1003.4 |
| 20260506180724 | 21 | 270 | 0.0 | 1.6 | 0.00 | 0.00 | 0.00 | 49 | 1005.0 |
| 20260506180505 | 21 | 314 | 0.0 | 3.2 | 0.00 | 0.00 | 0.00 | 49 | 1003.3 |
| 20260506180230 | 21 | 225 | 0.0 | 1.6 | 0.00 | 0.00 | 0.00 | 49 | 1005.0 |
| 20260506180005 | 21 | 282 | 1.6 | 3.2 | 0.00 | 0.00 | 0.00 | 49 | 1003.3 |
| 20260506175724 | 21 | 257 | 0.0 | 1.6 | 0.00 | 0.00 | 0.00 | 48 | 1005.0 |
| 20260506175505 | 21 | 269 | 1.6 | 3.2 | 0.00 | 0.00 | 0.00 | 48 | 1003.4 |
| 20260506175225 | 21 | 309 | 0.0 | 1.6 | 0.00 | 0.00 | 0.00 | 48 | 1005.0 |
| 20260506175005 | 22 | 297 | 1.6 | 3.2 | 0.00 | 0.00 | 0.00 | 46 | 1003.4 |
| 20260506174725 | 21 | 300 | 1.6 | 4.8 | 0.00 | 0.00 | 0.00 | 48 | 1004.9 |
| 20260506174225 | 22 | 308 | 1.6 | 4.8 | 0.00 | 0.00 | 0.00 | 46 | 1005.0 |
| 20260506174005 | 22 | 295 | 3.2 | 6.4 | 0.00 | 0.00 | 0.00 | 46 | 1003.5 |
| 20260506173724 | 22 | 307 | 3.2 | 6.4 | 0.00 | 0.00 | 0.00 | 46 | 1004.9 |
| 20260506173505 | 23 | 286 | 3.2 | 6.4 | 0.00 | 0.00 | 0.00 | 46 | 1003.5 |
| 20260506173225 | 22 | 302 | 4.8 | 8.0 | 0.00 | 0.00 | 0.00 | 45 | 1005.0 |
| 20260506173004 | 23 | 293 | 4.8 | 8.0 | 0.00 | 0.00 | 0.00 | 46 | 1003.6 |
| 20260506172724 | 22 | 295 | 4.8 | 8.0 | 0.00 | 0.00 | 0.00 | 45 | 1004.9 |
| 20260506172504 | 23 | 291 | 6.4 | 8.0 | 0.00 | 0.00 | 0.00 | 45 | 1003.5 |
| 20260506172225 | 22 | 273 | 6.4 | 8.0 | 0.00 | 0.00 | 0.00 | 44 | 1005.0 |
| 20260506171724 | 22 | 254 | 6.4 | 8.0 | 0.00 | 0.00 | 0.00 | 43 | 1005.3 |
| 20260506171504 | 23 | 260 | 8.0 | 9.7 | 0.00 | 0.00 | 0.00 | 45 | 1003.5 |
| 20260506171224 | 22 | 231 | 6.4 | 11.3 | 0.00 | 0.00 | 0.00 | 44 | 1005.1 |
| 20260506171004 | 23 | 255 | 8.0 | 9.7 | 0.00 | 0.00 | 0.00 | 45 | 1003.4 |
| 20260506170725 | 22 | 245 | 8.0 | 11.3 | 0.00 | 0.00 | 0.00 | 43 | 1005.1 |
| 20260506165724 | 22 | 275 | 8.0 | 9.7 | 0.00 | 0.00 | 0.00 | 44 | 1005.0 |
| 20260506165005 | 22 | 284 | 9.7 | 12.9 | 0.00 | 0.00 | 0.00 | 45 | 1003.5 |
| 20260506164725 | 22 | 287 | 9.7 | 12.9 | 0.00 | 0.00 | 0.00 | 44 | 1005.2 |
| 20260506164224 | 22 | 296 | 9.7 | 12.9 | 0.00 | 0.00 | 0.00 | 44 | 1005.1 |
| 20260506164005 | 22 | 302 | 9.7 | 14.5 | 0.00 | 0.00 | 0.00 | 45 | 1003.5 |
| 20260506163724 | 22 | 262 | 11.3 | 12.9 | 0.00 | 0.00 | 0.00 | 44 | 1005.0 |
| 20260506163504 | 22 | 288 | 11.3 | 14.5 | 0.00 | 0.00 | 0.00 | 44 | 1003.6 |
| 20260506163225 | 22 | 259 | 12.9 | 14.5 | 0.00 | 0.00 | 0.00 | 43 | 1005.3 |
| 20260506163004 | 22 | 293 | 12.9 | 16.1 | 0.00 | 0.00 | 0.00 | 44 | 1003.6 |
| 20260506162724 | 22 | 281 | 12.9 | 17.7 | 0.00 | 0.00 | 0.00 | 43 | 1005.3 |
| 20260506162505 | 22 | 300 | 12.9 | 19.3 | 0.00 | 0.00 | 0.00 | 44 | 1003.5 |
| 20260506161725 | 22 | 260 | 9.7 | 12.9 | 0.00 | 0.00 | 0.00 | 42 | 1005.4 |
| 20260506161504 | 22 | 266 | 11.3 | 17.7 | 0.00 | 0.00 | 0.00 | 43 | 1003.6 |
| 20260506161224 | 22 | 251 | 11.3 | 16.1 | 0.00 | 0.00 | 0.00 | 42 | 1005.5 |
| 20260506161005 | 22 | 290 | 11.3 | 17.7 | 0.00 | 0.00 | 0.00 | 43 | 1003.6 |
| 20260506160724 | 22 | 273 | 14.5 | 17.7 | 0.00 | 0.00 | 0.00 | 42 | 1005.4 |
| 20260506160504 | 23 | 271 | 14.5 | 22.5 | 0.00 | 0.00 | 0.00 | 45 | 1003.6 |
| 20260506160231 | 22 | 294 | 16.1 | 20.9 | 0.00 | 0.00 | 0.00 | 43 | 1005.3 |
| 20260506160005 | 23 | 270 | 16.1 | 22.5 | 0.00 | 0.00 | 0.00 | 44 | 1003.6 |
| 20260506155504 | 23 | 281 | 14.5 | 22.5 | 0.00 | 0.00 | 0.00 | 45 | 1003.8 |
| 20260506155225 | 22 | 281 | 12.9 | 17.7 | 0.00 | 0.00 | 0.00 | 43 | 1005.4 |
| 20260506155005 | 23 | 264 | 16.1 | 27.4 | 0.00 | 0.00 | 0.00 | 45 | 1003.7 |
| 20260506154725 | 22 | 273 | 19.3 | 29.0 | 0.00 | 0.00 | 0.00 | 43 | 1005.5 |
| 20260506154004 | 23 | 242 | 20.9 | 27.4 | 0.00 | 0.00 | 0.00 | 44 | 1003.8 |
| 20260506153724 | 23 | 293 | 19.3 | 24.1 | 0.00 | 0.00 | 0.00 | 42 | 1005.4 |
| 20260506153505 | 23 | 253 | 16.1 | 22.5 | 0.00 | 0.00 | 0.00 | 44 | 1003.6 |
| 20260506153224 | 23 | 275 | 16.1 | 22.5 | 0.00 | 0.00 | 0.00 | 42 | 1005.5 |
| 20260506153004 | 23 | 247 | 16.1 | 27.4 | 0.00 | 0.00 | 0.00 | 44 | 1003.8 |
| 20260506152724 | 23 | 289 | 16.1 | 27.4 | 0.00 | 0.00 | 0.00 | 42 | 1005.5 |
| 20260506152504 | 23 | 267 | 17.7 | 27.4 | 0.00 | 0.00 | 0.00 | 43 | 1003.9 |
| 20260506152224 | 23 | 271 | 17.7 | 27.4 | 0.00 | 0.00 | 0.00 | 41 | 1005.6 |
| 20260506152005 | 23 | 284 | 17.7 | 20.9 | 0.00 | 0.00 | 0.00 | 44 | 1003.7 |
| 20260506151725 | 23 | 276 | 17.7 | 19.3 | 0.00 | 0.00 | 0.00 | 42 | 1005.7 |
| 20260506151504 | 23 | 258 | 16.1 | 20.9 | 0.00 | 0.00 | 0.00 | 43 | 1003.9 |
| 20260506151225 | 23 | 293 | 17.7 | 27.4 | 0.00 | 0.00 | 0.00 | 42 | 1005.4 |
| 20260506151004 | 23 | 273 | 19.3 | 27.4 | 0.00 | 0.00 | 0.00 | 43 | 1004.0 |
| 20260506150724 | 23 | 282 | 20.9 | 29.0 | 0.00 | 0.00 | 0.00 | 40 | 1005.7 |
| 20260506150505 | 23 | 270 | 20.9 | 27.4 | 0.00 | 0.00 | 0.00 | 43 | 1004.0 |
| 20260506150230 | 23 | 293 | 19.3 | 29.0 | 0.00 | 0.00 | 0.00 | 40 | 1005.3 |
| 20260506150005 | 23 | 248 | 19.3 | 24.1 | 0.00 | 0.00 | 0.00 | 43 | 1003.8 |
| 20260506145505 | 23 | 261 | 17.7 | 24.1 | 0.00 | 0.00 | 0.00 | 41 | 1003.7 |
| 20260506145225 | 23 | 252 | 17.7 | 25.7 | 0.00 | 0.00 | 0.00 | 40 | 1005.5 |
| 20260506145004 | 23 | 239 | 19.3 | 24.1 | 0.00 | 0.00 | 0.00 | 40 | 1003.7 |
| 20260506144725 | 24 | 245 | 19.3 | 29.0 | 0.00 | 0.00 | 0.00 | 39 | 1005.6 |
| 20260506144504 | 23 | 241 | 20.9 | 29.0 | 0.00 | 0.00 | 0.00 | 41 | 1003.8 |
| 20260506144224 | 23 | 287 | 25.7 | 33.8 | 0.00 | 0.00 | 0.00 | 41 | 1005.6 |
| 20260506144005 | 23 | 273 | 24.1 | 30.6 | 0.00 | 0.00 | 0.00 | 40 | 1003.8 |
| 20260506143724 | 23 | 299 | 24.1 | 33.8 | 0.00 | 0.00 | 0.00 | 39 | 1005.6 |
| 20260506143504 | 23 | 251 | 20.9 | 30.6 | 0.00 | 0.00 | 0.00 | 42 | 1003.6 |
| 20260506143225 | 24 | 273 | 17.7 | 27.4 | 0.00 | 0.00 | 0.00 | 41 | 1005.4 |
| 20260506142724 | 24 | 259 | 14.5 | 27.4 | 0.00 | 0.00 | 0.00 | 42 | 1005.2 |
| 20260506142505 | 23 | 269 | 16.1 | 22.5 | 0.00 | 0.00 | 0.00 | 44 | 1003.8 |
| 20260506142224 | 23 | 282 | 19.3 | 35.4 | 0.00 | 0.00 | 0.00 | 44 | 1005.4 |
| 20260506142004 | 23 | 280 | 20.9 | 33.8 | 0.00 | 0.00 | 0.00 | 45 | 1003.8 |
| 20260506141725 | 23 | 286 | 24.1 | 35.4 | 0.00 | 0.00 | 0.00 | 45 | 1005.4 |
| 20260506141504 | 23 | 292 | 27.4 | 33.8 | 0.00 | 0.00 | 0.00 | 45 | 1003.8 |
| 20260506141225 | 23 | 297 | 27.4 | 33.8 | 0.00 | 0.00 | 0.00 | 45 | 1005.6 |
| 20260506141005 | 23 | 297 | 29.0 | 33.8 | 0.00 | 0.00 | 0.00 | 45 | 1003.9 |
| 20260506140724 | 23 | 322 | 25.7 | 33.8 | 0.00 | 0.00 | 0.00 | 44 | 1005.7 |